FW4092 Weather Reports


Display with metric or nautical units.
time (UTC)temp
F
wind
direction
speed
MPH
gust
MPH
rain 1hr
in
rain 24hr
in
rain mn
in
humidity
%
barometer
mb
20260502184432 69 9 3.0 9.0 0.00 0.00 0.00 47 1012.0
20260502183920 69 50 3.0 9.0 0.00 0.00 0.00 48 1012.0
20260502183411 68 348 2.0 9.0 0.00 0.00 0.00 47 1012.0
20260502182910 68 28 3.0 9.0 0.00 0.00 0.00 49 1012.1
20260502182908 68 47 3.0 9.0 0.00 0.00 0.00 48 1012.1
20260502182133 67 22 4.0 9.0 0.00 0.00 0.00 51 1012.2
20260502181356 67 311 4.0 9.0 0.00 0.00 0.00 51 1012.2
20260502180857 67 5 4.0 9.0 0.00 0.00 0.00 50 1012.2
20260502180356 66 322 3.0 8.0 0.00 0.00 0.00 51 1012.2
20260502170343 61 44 2.0 4.0 0.00 0.00 0.00 60 1012.3
20260502164339 60 323 2.0 4.0 0.00 0.00 0.00 63 1012.3
20260502164122 60 345 2.0 4.0 0.00 0.00 0.00 63 1012.4
20260502163337 59 85 2.0 4.0 0.00 0.00 0.00 63 1012.3
20260502162838 59 103 1.0 4.0 0.00 0.00 0.00 63 1012.3
20260502162619 59 109 1.0 3.0 0.00 0.00 0.00 64 1012.3
20260502161841 58 113 1.0 3.0 0.00 0.00 0.00 65 1012.3
20260502161635 58 142 0.0 3.0 0.00 0.00 0.00 65 1012.3
20260502160339 57 143 0.0 0.0 0.00 0.00 0.00 66 1012.2
20260502152337 55 143 0.0 2.0 0.00 0.00 0.00 69 1012.1
20260502151836 55 143 0.0 2.0 0.00 0.00 0.00 69 1012.2
20260502151341 55 143 0.0 1.0 0.00 0.00 0.00 68 1012.1
20260502150824 55 143 0.0 1.0 0.00 0.00 0.00 69 1012.2
20260502150318 55 143 0.0 1.0 0.00 0.00 0.00 69 1012.1
20260502123553 51 311 0.0 0.0 0.00 0.00 0.00 78 1011.1
20260502123548 51 311 0.0 2.0 0.00 0.00 0.00 77 1011.1
20260502123543 50 311 0.0 0.0 0.00 0.00 0.00 78 1011.4
20260502122004 51 311 0.0 2.0 0.00 0.00 0.00 76 1011.1
20260502121456 52 311 0.0 0.0 0.00 0.00 0.00 75 1011.1
20260502121219 52 309 0.0 0.0 0.00 0.00 0.00 75 1011.3
20260502120447 52 309 0.0 0.0 0.00 0.00 0.00 75 1011.3
20260502115707 53 309 0.0 0.0 0.00 0.00 0.00 74 1011.3
20260502114940 53 309 0.0 0.0 0.00 0.00 0.00 74 1011.1
20260502113914 53 309 0.0 0.0 0.00 0.00 0.00 72 1011.3
20260502113408 53 309 0.0 0.0 0.00 0.00 0.00 72 1011.3
20260502112905 53 309 0.0 0.0 0.00 0.00 0.00 72 1011.1
20260502112357 53 309 0.0 1.0 0.00 0.00 0.00 72 1011.3
20260502111850 54 309 0.0 2.0 0.00 0.00 0.00 72 1011.3
20260502111622 54 309 1.0 3.0 0.00 0.00 0.00 72 1011.3
20260502110838 54 309 1.0 3.0 0.00 0.00 0.00 72 1011.3
20260502110614 54 310 1.0 2.0 0.00 0.00 0.00 72 1011.4
20260502105830 54 310 1.0 3.0 0.00 0.00 0.00 72 1011.4
20260502105822 54 310 1.0 3.0 0.00 0.00 0.00 72 1011.5
20260502105602 54 310 1.0 3.0 0.00 0.00 0.00 72 1011.5
20260502105334 54 310 1.0 3.0 0.00 0.00 0.00 72 1011.5
20260502104833 54 311 0.0 2.0 0.00 0.00 0.00 72 1011.4
20260502104619 54 311 0.0 1.0 0.00 0.00 0.00 71 1011.3
20260502103831 54 311 0.0 0.0 0.00 0.00 0.00 71 1011.4
20260502103552 54 311 0.0 0.0 0.00 0.00 0.00 70 1011.4
20260502102830 54 311 0.0 1.0 0.00 0.00 0.00 69 1011.4
20260502102331 53 311 1.0 3.0 0.00 0.00 0.00 69 1011.4
20260502101833 53 311 1.0 3.0 0.00 0.00 0.00 68 1011.4
20260502101331 54 328 0.0 2.0 0.00 0.00 0.00 66 1011.4
20260502100830 54 330 0.0 0.0 0.00 0.00 0.00 66 1011.4
20260502100330 54 330 0.0 0.0 0.00 0.00 0.00 65 1011.4
20260502090829 57 330 0.0 0.0 0.00 0.00 0.00 62 1011.5
20260502090328 57 330 0.0 0.0 0.00 0.00 0.00 61 1011.6
20260502071248 62 345 3.0 9.0 0.00 0.00 0.00 59 1011.6
20260502070748 62 336 3.0 7.0 0.00 0.00 0.00 60 1011.9
20260502070247 62 311 4.0 7.0 0.00 0.00 0.00 59 1012.2
20260502070034 63 275 3.0 7.0 0.00 0.00 0.00 57 1012.4
20260502065245 63 229 3.0 9.0 0.00 0.00 0.00 56 1012.4
20260502064744 63 255 4.0 9.0 0.00 0.00 0.00 55 1012.4
20260502064242 63 259 4.0 9.0 0.00 0.00 0.00 53 1012.4
20260502063756 63 261 4.0 9.0 0.00 0.00 0.00 51 1012.4
20260502063248 63 260 3.0 7.0 0.00 0.00 0.00 52 1012.3
20260502063023 63 265 4.0 8.0 0.00 0.00 0.00 52 1012.1
20260502062239 63 273 3.0 8.0 0.00 0.00 0.00 52 1012.0
20260502061740 63 298 3.0 8.0 0.00 0.00 0.00 51 1011.7
20260502061242 63 309 2.0 5.0 0.00 0.00 0.00 51 1011.8
20260502060740 63 330 2.0 6.0 0.00 0.00 0.00 51 1011.7
20260502060242 63 317 3.0 6.0 0.00 0.00 0.00 50 1011.7
20260502055733 63 314 2.0 5.0 0.00 0.00 0.00 50 1011.5
20260502055227 64 334 2.0 6.0 0.00 0.00 0.00 49 1011.5
20260502054721 64 350 3.0 6.0 0.00 0.00 0.00 49 1011.4
20260502054455 64 349 3.0 8.0 0.00 0.00 0.00 48 1011.5
20260502053709 64 342 3.0 9.0 0.00 0.00 0.00 48 1011.4
20260502053204 65 348 3.0 10.0 0.00 0.00 0.00 48 1011.4
20260502052926 65 346 4.0 10.0 0.00 0.00 0.00 48 1011.4
20260502052204 65 355 5.0 11.0 0.00 0.00 0.00 47 1011.3
20260502051922 65 350 4.0 11.0 0.00 0.00 0.00 47 1011.3
20260502051211 66 355 4.0 10.0 0.00 0.00 0.00 46 1011.3
20260502050709 66 336 5.0 11.0 0.00 0.00 0.00 46 1011.4
20260502050209 66 340 5.0 11.0 0.00 0.00 0.00 46 1011.4
20260502045705 66 355 3.0 10.0 0.00 0.00 0.00 45 1011.3
20260502045210 66 347 3.0 9.0 0.00 0.00 0.00 44 1011.3
20260502044705 66 350 3.0 9.0 0.00 0.00 0.00 44 1011.4
20260502044645 67 342 3.0 9.0 0.00 0.00 0.00 44 1011.4
20260502044424 67 342 3.0 9.0 0.00 0.00 0.00 44 1011.4
20260502043926 67 332 3.0 9.0 0.00 0.00 0.00 43 1011.3
20260502043211 67 328 4.0 10.0 0.00 0.00 0.00 43 1011.3
20260502042155 67 350 5.0 12.0 0.00 0.00 0.00 42 1010.9
20260502041655 68 294 7.0 13.0 0.00 0.00 0.00 42 1010.7
20260502041155 68 344 8.0 15.0 0.00 0.00 0.00 41 1010.7
20260502040656 68 350 8.0 15.0 0.00 0.00 0.00 41 1010.6
20260502040155 68 336 7.0 14.0 0.00 0.00 0.00 41 1010.4
20260502035656 68 322 5.0 13.0 0.00 0.00 0.00 41 1010.2
20260502035429 68 346 3.0 10.0 0.00 0.00 0.00 40 1010.2
20260502034929 68 328 4.0 10.0 0.00 0.00 0.00 40 1010.1
20260502034148 69 286 6.0 15.0 0.00 0.00 0.00 40 1010.1
20260502033643 69 328 6.0 15.0 0.00 0.00 0.00 39 1009.9
20260502033413 69 318 5.0 11.0 0.00 0.00 0.00 39 1010.3
20260502032633 69 304 5.0 12.0 0.00 0.00 0.00 39 1010.3
20260502032125 69 311 6.0 12.0 0.00 0.00 0.00 38 1010.2
20260502031617 70 320 6.0 13.0 0.00 0.00 0.00 38 1009.9
20260502031347 70 320 7.0 14.0 0.00 0.00 0.00 37 1009.7
20260502030607 71 317 7.0 14.0 0.00 0.00 0.00 36 1009.7
20260502030104 71 335 7.0 14.0 0.00 0.00 0.00 35 1009.7
20260502025555 71 323 8.0 16.0 0.00 0.00 0.00 34 1009.7
20260502025324 72 319 8.0 16.0 0.00 0.00 0.00 32 1009.7
20260502024820 72 309 8.0 14.0 0.00 0.00 0.00 30 1009.7
20260502024037 73 327 8.0 18.0 0.00 0.00 0.00 29 1009.5
20260502023531 74 315 6.0 18.0 0.00 0.00 0.00 28 1009.3
20260502023024 74 331 3.0 11.0 0.00 0.00 0.00 25 1009.3
20260502022518 74 348 3.0 7.0 0.00 0.00 0.00 26 1009.2
20260502022012 75 329 2.0 7.0 0.00 0.00 0.00 25 1009.1
20260502021506 75 264 4.0 11.0 0.00 0.00 0.00 24 1009.1
20260502021008 75 15 4.0 11.0 0.00 0.00 0.00 24 1009.2
20260502020454 75 355 4.0 13.0 0.00 0.00 0.00 24 1009.2
20260502020223 76 15 4.0 13.0 0.00 0.00 0.00 24 1009.2
20260502015442 76 25 5.0 13.0 0.00 0.00 0.00 24 1009.3
20260502014936 75 350 7.0 14.0 0.00 0.00 0.00 24 1009.4
20260502014430 76 21 4.0 14.0 0.00 0.00 0.00 24 1009.7
20260502013924 77 34 3.0 10.0 0.00 0.00 0.00 24 1009.6
20260502013418 77 24 4.0 10.0 0.00 0.00 0.00 23 1009.4
20260502012913 77 0 5.0 10.0 0.00 0.00 0.00 23 1009.1
20260502012407 77 11 5.0 11.0 0.00 0.00 0.00 23 1008.9
20260502012125 77 322 5.0 11.0 0.00 0.00 0.00 23 1008.9
20260502011354 77 335 3.0 8.0 0.00 0.00 0.00 23 1008.9
20260502010848 77 343 3.0 9.0 0.00 0.00 0.00 22 1008.9
20260502010620 77 355 3.0 9.0 0.00 0.00 0.00 21 1008.7
20260502010116 78 49 2.0 8.0 0.00 0.00 0.00 22 1008.7
20260502005330 78 355 2.0 7.0 0.00 0.00 0.00 21 1008.9
20260502004824 78 342 1.0 4.0 0.00 0.00 0.00 21 1009.0
20260502004555 79 48 2.0 5.0 0.00 0.00 0.00 21 1008.9
20260502003813 79 44 2.0 5.0 0.00 0.00 0.00 20 1008.9
20260502003306 79 344 2.0 4.0 0.00 0.00 0.00 20 1008.9
20260502003024 80 5 1.0 4.0 0.00 0.00 0.00 19 1008.9
20260502002527 80 132 1.0 3.0 0.00 0.00 0.00 20 1008.9
20260502001749 80 181 1.0 4.0 0.00 0.00 0.00 19 1009.0
20260502001242 80 181 1.0 5.0 0.00 0.00 0.00 19 1009.0
20260502000739 79 171 1.0 5.0 0.00 0.00 0.00 20 1009.1
20260502000230 79 188 2.0 5.0 0.00 0.00 0.00 19 1009.1
20260501235725 79 189 2.0 5.0 0.00 0.00 0.00 19 1009.1
20260501235218 79 201 2.0 5.0 0.00 0.00 0.00 21 1009.2
20260501234712 79 219 3.0 7.0 0.00 0.00 0.00 20 1009.2
20260501234207 79 192 3.0 7.0 0.00 0.00 0.00 20 1009.3
20260501233708 80 213 3.0 11.0 0.00 0.00 0.00 20 1009.4
20260501233426 80 207 3.0 11.0 0.00 0.00 0.00 20 1009.4
20260501232923 80 81 2.0 8.0 0.00 0.00 0.00 19 1009.4
20260501232147 81 70 3.0 8.0 0.00 0.00 0.00 19 1009.4
20260501231645 81 90 2.0 8.0 0.00 0.00 0.00 20 1009.5
20260501231142 81 119 2.0 12.0 0.00 0.00 0.00 19 1009.6
20260501230640 81 145 3.0 12.0 0.00 0.00 0.00 19 1009.7
20260501230141 81 69 4.0 12.0 0.00 0.00 0.00 20 1009.7
20260501225640 81 129 3.0 12.0 0.00 0.00 0.00 19 1009.8
20260501225140 81 38 3.0 11.0 0.00 0.00 0.00 20 1009.9
20260501224640 82 88 3.0 11.0 0.00 0.00 0.00 19 1010.1
20260501224140 82 111 2.0 9.0 0.00 0.00 0.00 20 1010.1
20260501223641 81 29 3.0 12.0 0.00 0.00 0.00 20 1010.3
20260501223140 80 5 4.0 12.0 0.00 0.00 0.00 20 1010.3
20260501222909 79 5 3.0 11.0 0.00 0.00 0.00 21 1010.4
20260501222136 80 75 3.0 11.0 0.00 0.00 0.00 20 1010.4
20260501221636 80 77 2.0 8.0 0.00 0.00 0.00 20 1010.5
20260501221145 80 53 3.0 8.0 0.00 0.00 0.00 21 1010.6
20260501220139 80 91 3.0 10.0 0.00 0.00 0.00 20 1010.8
20260501220132 80 84 3.0 10.0 0.00 0.00 0.00 20 1010.9
20260501215135 79 109 3.0 10.0 0.00 0.00 0.00 20 1011.0
20260501214633 79 16 2.0 9.0 0.00 0.00 0.00 20 1011.1
20260501214130 79 103 1.0 7.0 0.00 0.00 0.00 20 1011.3
20260501213631 79 104 2.0 9.0 0.00 0.00 0.00 19 1011.4
20260501213412 80 123 3.0 9.0 0.00 0.00 0.00 20 1011.4
20260501212629 79 131 3.0 9.0 0.00 0.00 0.00 20 1011.5
20260501212130 79 133 3.0 9.0 0.00 0.00 0.00 19 1011.5
20260501211905 79 126 3.0 9.0 0.00 0.00 0.00 21 1011.5
20260501211135 79 123 4.0 10.0 0.00 0.00 0.00 20 1011.6
20260501210909 79 112 3.0 10.0 0.00 0.00 0.00 20 1011.6
20260501210127 79 173 2.0 7.0 0.00 0.00 0.00 20 1011.7
20260501205706 79 182 4.0 10.0 0.00 0.00 0.00 20 1011.7
20260501205654 79 157 3.0 10.0 0.00 0.00 0.00 19 1011.7
20260501204624 80 172 5.0 11.0 0.00 0.00 0.00 21 1011.7
20260501204124 79 150 4.0 11.0 0.00 0.00 0.00 20 1011.7
20260501203624 79 244 3.0 10.0 0.00 0.00 0.00 21 1011.8
20260501203125 78 162 4.0 9.0 0.00 0.00 0.00 21 1011.9
20260501202623 79 91 5.0 10.0 0.00 0.00 0.00 21 1012.0
20260501202132 79 103 5.0 13.0 0.00 0.00 0.00 20 1012.1
20260501201625 80 135 5.0 13.0 0.00 0.00 0.00 20 1012.0
20260501201124 79 157 4.0 11.0 0.00 0.00 0.00 20 1012.0
20260501200617 79 138 4.0 11.0 0.00 0.00 0.00 20 1012.0
20260501200115 79 96 4.0 13.0 0.00 0.00 0.00 21 1012.2
20260501200110 79 147 4.0 11.0 0.00 0.00 0.00 20 1012.1
20260501195321 79 205 4.0 13.0 0.00 0.00 0.00 20 1012.2
20260501195031 79 157 3.0 10.0 0.00 0.00 0.00 20 1012.2
20260501194324 79 148 2.0 8.0 0.00 0.00 0.00 22 1012.4
20260501193539 78 129 3.0 10.0 0.00 0.00 0.00 21 1012.4
20260501193038 77 220 2.0 10.0 0.00 0.00 0.00 24 1012.7
20260501192526 76 223 2.0 6.0 0.00 0.00 0.00 22 1012.7
20260501192019 76 130 3.0 8.0 0.00 0.00 0.00 23 1012.9
20260501191757 76 160 3.0 8.0 0.00 0.00 0.00 24 1013.0
20260501191012 76 206 2.0 6.0 0.00 0.00 0.00 24 1013.1
20260501190506 76 210 2.0 8.0 0.00 0.00 0.00 25 1013.1
20260501185956 76 169 3.0 8.0 0.00 0.00 0.00 25 1013.1
20260501185457 75 117 2.0 8.0 0.00 0.00 0.00 25 1013.2
20260501184944 75 175 2.0 6.0 0.00 0.00 0.00 26 1013.2